Location: *
(42.3442°N, 9.2072°E)
Time: 15:29:59
(UTC+00:00)

Mayak - Pass Details

Date: 09 April 2020
Orbit: 581 x 601 km, 97.5° (Epoch: 28 May)

Event Time Altitude Azimuth Distance (km) Brightness Sun altitude
Rises 22:02:34 0° 6° (N) 2,818 ? -36.3°
Reaches altitude 10° 22:04:47 10° 1° (N) 1,911 ? -36.4°
Enters shadow 22:05:13 13° 359° (N) 1,744 ? -36.5°
